DMSP 5D-2 F13 DEB, 40497

Orbit data source: Space-Track

DMSP 5D-2 F13 DEB, 40497 is space debris in SSO originally from a launch on Fri, 24 Mar 1995 UTC launched from the Air Force Western Test Range (AFWTR). Debris objects in space refer to the collection of defunct objects orbiting the Earth. Examples of debris include non-operational satellites, rocket bodies, and fragments generated from explosions, collisions, or faulty payload assembly.

Loading next visibility...
Identifier
40497, 1995-015CL
Orbit
SSO
Country
Flag of USUS
Related business
Manufacturer
Unknown
Mission
Spacecraft
Bus & Motor
Unknown
Mass
Unknown
Launch date (UTC)
1995-03-24 (31 years ago)
Launch vehicle
Unknown
Launch site
Air Force Western Test Range (AFWTR)
Object type
Payload
Rocket body
Debris
Shape & HBR
Unknown shape, 0.1 m
Radar Cross Section
Medium (>0.1 m² and <1 m²)

Expand to show TLE details & history
Last TLE update: 3 days ago

TLE from 3 days ago
0 DMSP 5D-2 F13 DEB
1 40497U 95015CL  26251.35289773  .00003571  00000-0  10792-2 0  9991
2 40497  98.6750 294.6682 0005866 113.7772 246.4033 14.43021025597398
Epoch: 2026-09-08T08:28Z
TLE epoch observation values (Epoch: 2026-09-08T08:28:10.363Z)
Latitude
-0.00004°
Longitude
-179.79551°
Altitude
753.157 km
Speed
7.477 km/s
True Right ascension
19h 38m 40s
True Declination
0° 00' 00"
Sunlit
Object was in full shadow at epoch
Visualization orbit readout
Latitude
Unknown
Longitude
Unknown
Altitude
Unknown
Speed
Unknown
Apparent Right ascension
Unknown
Apparent Declination
Unknown
Sunlit
N/A
Visualization observer readout
Local Sidereal Time
03:55:00
Azimuth
Unknown
Elevation
Unknown
Doppler factor
Unknown
Orbital elements
Apogee altitude
749.839 km
Perigee altitude
741.482 km
Semi-major axis
7,123.798 km
Eccentricity
0.00059
Inclination
98.675°
RAAN
294.6682°
Arg. of periapsis
113.7772°
True anomaly
246.34172°
Mean anomaly
246.4033°
Eccentric anomaly
246.37251°
Mean motion
3.60974 °/min
Orbital period
99.73 mins
BSTAR
0.0010792
Loading maneuver chart data...
Computing Atmospheric mass density...

Documentation

Showing up to 5 results
|